Main page


Airports :

Troll C, Norway

Oil platform

latitude: 60-53-09N, longitude: 3-36-35E, elevation: 20 m

Current weather observation

The report was made 22 minutes ago, at 17:20 UTC
Wind 11 kt from the West/Northwest
Temperature 4°C
Humidity 87%
Pressure 1022 hPa
Visibility 10 km or more
light rain showers

METAR: ENQC 201720Z AUTO 29011KT 9999NDV -SHRA BKN027/// 04/02 Q1022 W///S4

Time: 18:42 (17:42 UTC)

TAF: missing

Weather observations and forecasts of more than 4000 airports (METAR and TAF reports).

The available stations are represented by yellow and red dots on the map.

Hover mouse over dot to see the name of the station.

Then click to see weather observations and forecasts.

To change the map : click on the green buttons with a black cross to zoom in, on the green button with a dash to zoom out, or on the green arrows for adjacent maps.